Location: Boitzum
(52.1496°N, 9.6943°E)
Time: 14:12:38
(UTC+00:00)

Lacrosse 5 rocket - Pass Details

Date: 13 January 2026
Orbit: 401 x 481 km, 57.0° (Epoch: 16 February)

Event Time Altitude Azimuth Distance (km) Brightness Sun altitude
Exits shadow 05:21:26 39° 324° (NW) 749 1.6 -18.1°
Maximum altitude 05:22:01 42° 350° (N) 709 1.7 -18.0°
Drops below altitude 10° 05:25:40 10° 63° (ENE) 1,689 4.5 -17.4°
Sets 05:27:55 0° 70° (ENE) 2,571 5.7 -17.1°
